Location: Shepherdstown, WV
(39.4326°N, 77.8042°W)
Time: 15:27:56
(UTC-04:00)

S-56A Canister/Altair - Visible Passes

Search period start: 27 July 2021 00:00
Search period end: 06 August 2021 00:00
Orbit: 632 x 2501 km, 38.9° (Epoch: 26 July)

Date Brightness Start Highest point End Pass type
(mag) Time Alt. Az. Time Alt. Az. Time Alt. Az.
27 Jul 10.2 00:36:53 10° W 00:44:49 25° SW 00:44:49 25° SW visible
27 Jul 9.6 21:54:27 10° WNW 22:08:45 69° SSW 22:16:10 24° SE visible
28 Jul 10.0 00:02:45 10° W 00:12:52 30° SW 00:13:33 30° SW visible
28 Jul 9.7 21:20:40 10° WNW 21:35:26 73° SSW 21:44:54 16° ESE visible
28 Jul 9.8 23:28:42 10° WNW 23:40:02 35° SW 23:42:18 32° SSW visible
29 Jul 9.9 20:46:55 10° W 21:02:01 77° SSW 21:13:36 10° ESE visible
29 Jul 9.8 22:54:43 10° WNW 23:07:05 41° SW 23:11:06 31° S visible
30 Jul 10.0 22:20:48 10° WNW 22:34:02 46° SW 22:39:55 27° SSE visible
31 Jul 10.9 00:32:18 10° W 00:36:57 13° WSW 00:37:19 13° SW visible
31 Jul 10.1 21:46:57 10° WNW 22:00:52 52° SW 22:08:47 21° SSE visible
31 Jul 10.7 23:57:04 10° W 00:04:13 17° SW 00:06:12 16° SW visible
01 Aug 10.1 21:13:10 10° WNW 21:27:37 57° SSW 21:37:41 15° SE visible
01 Aug 10.6 23:22:25 10° W 23:31:25 21° SW 23:35:06 18° SSW visible
02 Aug 10.2 20:39:27 10° WNW 20:54:15 62° SSW 21:06:15 10° SE visible
02 Aug 10.6 22:48:03 10° W 22:58:31 26° SW 23:04:03 18° SSW visible
03 Aug 10.6 22:13:53 10° W 22:25:31 30° SW 22:33:04 16° S visible
04 Aug 10.7 21:39:52 10° WNW 21:52:27 35° SW 22:02:08 12° SSE visible
05 Aug 10.7 21:05:59 10° WNW 21:19:16 39° SW 21:30:29 10° SSE visible
